LRCT Weather Reports


time (UTC)temp
C
wind
direction
speed
KPH
gust
KPH
rain 1hr
cm
rain 24hr
cm
rain mn
cm
humidity
%
barometer
mb
20260906023357 -17 0.0 0.0 0.00 0.00 0.00
20260906021903 -17 0.0 0.0 0.00 0.00 0.00
20260906020358 -17 0.0 0.0 0.00 0.00 0.00
20260906014858 -17 0.0 0.0 0.00 0.00 0.00
20260906013519 -17 0.0 0.0 0.00 0.00 0.00
20260906011856 -17 0.0 0.0 0.00 0.00 0.00
20260906010356 -17 0.0 0.0 0.00 0.00 0.00
20260906005019 -17 0.0 0.0 0.00 0.00 0.00
20260906003529 -17 0.0 0.0 0.00 0.00 0.00
20260906002020 -17 0.0 0.0 0.00 0.00 0.00
20260906000509 -17 0.0 0.0 0.00 0.00 0.00
20260905234907 -17 0.0 0.0 0.00 0.00 0.00
20260905233356 -17 0.0 0.0 0.00 0.00 0.00
20260905232021 -17 0.0 0.0 0.00 0.00 0.00
20260905230429 -17 0.0 0.0 0.00 0.00 0.00
20260905225020 -17 0.0 0.0 0.00 0.00 0.00
20260905223410 -17 0.0 0.0 0.00 0.00 0.00
20260905222004 -17 0.0 0.0 0.00 0.00 0.00
20260905220519 -17 0.0 0.0 0.00 0.00 0.00
20260905215018 -17 0.0 0.0 0.00 0.00 0.00
20260905213357 -17 0.0 0.0 0.00 0.00 0.00
20260905211853 -17 0.0 0.0 0.00 0.00 0.00
20260905210356 -17 0.0 0.0 0.00 0.00 0.00
20260905204907 18 340 11.3 0.0 0.00 0.00 0.00 78 1019.0
20260905203356 18 340 11.3 0.0 0.00 0.00 0.00 78 1019.0
20260905201856 18 340 11.3 0.0 0.00 0.00 0.00 78 1019.0
20260905200519 -17 0.0 0.0 0.00 0.00 0.00
20260905195012 -17 0.0 0.0 0.00 0.00 0.00
20260905193357 21 300 14.5 0.0 0.00 0.00 0.00 64 1018.0
20260905191926 21 300 14.5 0.0 0.00 0.00 0.00 64 1018.0
20260905190357 -17 0.0 0.0 0.00 0.00 0.00
20260905184854 22 300 14.5 0.0 0.00 0.00 0.00 61 1016.0
20260905183402 22 300 14.5 0.0 0.00 0.00 0.00 61 1016.0
20260905181853 22 300 14.5 0.0 0.00 0.00 0.00 61 1016.0
20260905180353 22 300 14.5 0.0 0.00 0.00 0.00 61 1016.0
20260905174850 23 350 14.5 0.0 0.00 0.00 0.00 54 1016.0
20260905173356 23 350 14.5 0.0 0.00 0.00 0.00 54 1016.0
20260905171858 23 350 14.5 0.0 0.00 0.00 0.00 54 1016.0
20260905170357 23 350 14.5 0.0 0.00 0.00 0.00 54 1016.0
20260905164857 25 350 22.5 40.2 0.00 0.00 0.00 51 1016.0
20260905163358 25 350 22.5 40.2 0.00 0.00 0.00 51 1016.0
20260905161855 25 350 22.5 40.2 0.00 0.00 0.00 51 1016.0
20260905160357 25 350 22.5 40.2 0.00 0.00 0.00 51 1016.0
20260905154907 27 350 27.4 46.7 0.00 0.00 0.00 42 1016.0
20260905153356 27 350 27.4 46.7 0.00 0.00 0.00 42 1016.0
20260905151857 27 350 27.4 46.7 0.00 0.00 0.00 42 1016.0
20260905150357 27 350 27.4 46.7 0.00 0.00 0.00 42 1016.0
20260905144850 30 350 27.4 46.7 0.00 0.00 0.00 35 1015.0
20260905143356 30 350 27.4 46.7 0.00 0.00 0.00 35 1015.0
20260905141854 30 350 27.4 46.7 0.00 0.00 0.00 35 1015.0
20260905140353 30 350 27.4 46.7 0.00 0.00 0.00 35 1015.0
20260905135016 -17 0.0 0.0 0.00 0.00 0.00
20260905133357 31 350 29.0 0.0 0.00 0.00 0.00 33 1015.0
20260905131859 31 350 29.0 0.0 0.00 0.00 0.00 33 1015.0
20260905130418 31 350 29.0 0.0 0.00 0.00 0.00 33 1015.0
20260905124851 32 300 20.9 0.0 0.00 0.00 0.00 29 1015.0
20260905123357 32 300 20.9 0.0 0.00 0.00 0.00 29 1015.0
20260905121924 32 300 20.9 0.0 0.00 0.00 0.00 29 1015.0
20260905120357 32 300 20.9 0.0 0.00 0.00 0.00 29 1015.0
20260905114857 32 210 17.7 0.0 0.00 0.00 0.00 31 1015.0
20260905113357 32 210 17.7 0.0 0.00 0.00 0.00 31 1015.0
20260905111915 32 210 17.7 0.0 0.00 0.00 0.00 31 1015.0
20260905110356 32 210 17.7 0.0 0.00 0.00 0.00 31 1015.0
20260905104857 31 210 24.1 0.0 0.00 0.00 0.00 33 1016.0
20260905103357 31 210 24.1 0.0 0.00 0.00 0.00 33 1016.0
20260905101856 31 210 24.1 0.0 0.00 0.00 0.00 33 1016.0
20260905100357 31 210 24.1 0.0 0.00 0.00 0.00 33 1016.0
20260905095019 -17 0.0 0.0 0.00 0.00 0.00
20260905093356 27 200 22.5 0.0 0.00 0.00 0.00 40 1016.0
20260905091857 27 200 22.5 0.0 0.00 0.00 0.00 40 1016.0
20260905090357 27 200 22.5 0.0 0.00 0.00 0.00 40 1016.0
20260905084856 25 140 11.3 0.0 0.00 0.00 0.00 51 1016.0
20260905083357 25 140 11.3 0.0 0.00 0.00 0.00 51 1016.0
20260905081856 25 140 11.3 0.0 0.00 0.00 0.00 51 1016.0
20260905080357 25 140 11.3 0.0 0.00 0.00 0.00 51 1016.0
20260905074856 -17 0.0 0.0 0.00 0.00 0.00
20260905073405 -17 0.0 0.0 0.00 0.00 0.00
20260905071857 -17 0.0 0.0 0.00 0.00 0.00
20260905070357 -17 0.0 0.0 0.00 0.00 0.00
20260905064858 -17 0.0 0.0 0.00 0.00 0.00
20260905063358 -17 0.0 0.0 0.00 0.00 0.00
20260905061857 -17 0.0 0.0 0.00 0.00 0.00
20260905060358 -17 0.0 0.0 0.00 0.00 0.00
20260905054857 15 160 4.8 0.0 0.00 0.00 0.00 94 1017.0
20260905053357 15 160 4.8 0.0 0.00 0.00 0.00 94 1017.0
20260905051856 15 160 4.8 0.0 0.00 0.00 0.00 94 1017.0
20260905050357 15 160 4.8 0.0 0.00 0.00 0.00 94 1017.0
20260905044857 12 130 8.0 0.0 0.00 0.00 0.00 100 1017.0
20260905043356 12 130 8.0 0.0 0.00 0.00 0.00 100 1017.0
20260905041857 12 130 8.0 0.0 0.00 0.00 0.00 100 1017.0
20260905040356 12 130 8.0 0.0 0.00 0.00 0.00 100 1017.0
20260905034858 12 4.8 0.0 0.00 0.00 0.00 100 1017.0
20260905033356 12 4.8 0.0 0.00 0.00 0.00 100 1017.0
20260905031857 12 4.8 0.0 0.00 0.00 0.00 100 1017.0
20260905030357 12 4.8 0.0 0.00 0.00 0.00 100 1017.0
20260905024910 13 4.8 0.0 0.00 0.00 0.00 82 1017.0